Regional Weather Roundup
Issued by NWS Albany, NY

Home | Current Version | Previous Version | Text Only | Print | Product List | Glossary On
Versions: 1 2 3 4 5 6 7 8 9 10 11 12 13 14 15 16 17 18 19 20 21 22 23 24 25 26 27 28 29 30 31 32 33 34 35 36 37 38 39 40 41 42 43 44 45 46 47 48 49 50
000
ASUS41 KALY 260210
RWRALY

NEW YORK STATE HOURLY WEATHER ROUNDUP
NATIONAL WEATHER SERVICE ALBANY NY
1000 PM EDT SAT MAR 25 2017

NOTE: "FAIR" INDICATES FEW OR NO CLOUDS BELOW 12,000 FEET WITH NO
SIGNIFICANT WEATHER AND/OR NO OBSTRUCTIONS TO VISIBILITY.

NYZ032-033-038>043-046>054-057>066-NYZ062>081-082-084-260300-
EAST


CITY           SKY/WX    TMP DP  RH WIND       PRES   REMARKS
ALBANY         CLOUDY    36  28  73 N7        30.45R WCI  30
GLENS FALLS    CLOUDY    33  24  69 NE5       30.45R WCI  29
POUGHKEEPSIE   CLOUDY    35  33  92 NE9       30.41R WCI  28
NEWBURGH       MOCLDY    36  34  93 NE7       30.41R WCI  30
MONTGOMERY     MOCLDY    37  32  82 NE10      30.39R WCI  30
WHITE PLAINS   CLOUDY    42  39  89 N5        30.36R
ISLIP          CLOUDY    42  39  89 NE10      30.38R
NEW YORK CITY  CLOUDY    45  39  79 NE8       30.36S
CENTRAL PARK   CLOUDY    45  41  86 NE8       30.38S
$$

NYZ005>009-017-018-044>046-055-056-260300-
CENTRAL


CITY           SKY/WX    TMP DP  RH WIND       PRES   REMARKS
FULTON         CLOUDY    35  30  82 NE5       30.40S WCI  31
SYRACUSE       CLOUDY    36  35  96 SE3       30.40R
ROME           CLOUDY    35  35 100 CALM      30.42R
ELMIRA         CLOUDY    36  33  89 NE7       30.36S WCI  30
BINGHAMTON     FOG       34  34 100 E8        30.32F VSB 1/4 WCI  27
MONTICELLO     CLOUDY    34  34 100 E3        30.36R VSB 1/4
$$

NYZ026>034-041>043-087-260300-
NORTH


CITY           SKY/WX    TMP DP  RH WIND       PRES   REMARKS
WATERTOWN      CLOUDY    31  27  85 NE7       30.43S WCI  24
FORT DRUM      NOT AVBL
MASSENA        CLEAR     24  22  91 CALM      30.48S
SARANAC LAKE   CLEAR     20  19  96 CALM      30.38S
PLATTSBURGH    CLEAR     24  19  81 CALM      30.49R
$$

NYZ001>004-010>016-019>021-085-260300-
WEST


CITY           SKY/WX    TMP DP  RH WIND       PRES   REMARKS
NIAGARA FALLS  CLOUDY    36  30  79 E15       30.34S WCI  27
BUFFALO        CLOUDY    35  31  85 E16G22    30.32F WCI  25
DUNKIRK        CLOUDY    39  36  89 NE12      30.27R WCI  32
JAMESTOWN      CLOUDY    43  36  75 E8        30.21S
WELLSVILLE     CLOUDY    37  34  89 SE10      30.28F WCI  30
ROCHESTER      CLOUDY    36  31  82 E9        30.39S WCI  29
PENN YAN       FOG       35  32  88 VRB3      30.37S VSB 3/4
$$

             KEY
       WCI = WIND CHILL INDEX
       VSB = VISIBILITY
       HX  = HEAT INDEX
$$



USA.gov is the U.S. government's official web portal to all federal, state and local government web resources and services.